Terminal Aerodrome Forecast
Issued by NWS

Home | Current Version | Previous Version | Text Only | Print | Product List | Glossary On
Versions: 1 2 3 4 5 6 7 8 9 10 11 12 13 14 15 16 17 18
000
FTUS43 KAPX 210200 AAA
TAFTVC
TAF AMD
KTVC 210201Z 2102/2124 00000KT P6SM VCSH OVC080
     FM210300 00000KT P6SM OVC050
     FM211300 VRB03KT 6SM -SHRA OVC025
     FM212000 34005KT 5SM -SHRA OVC015=

USA.gov is the U.S. government's official web portal to all federal, state and local government web resources and services.